Date,TemperatureHighF,TemperatureAvgF,TemperatureLowF,DewpointHighF,DewpointAvgF,DewpointLowF,HumidityHigh,HumidityAvg,HumidityLow,PressureMaxIn,PressureMinIn,WindSpeedMaxMPH,WindSpeedAvgMPH,GustSpeedMaxMPH,PrecipitationSumIn
2013-1-1,25.5,18.4,9.5,14.3,9.6,2.2,78,69,56,29.85,29.73,30,13,30,0.00
2013-1-2,28.0,15.6,1.2,12.7,6.3,-6.3,79,67,50,29.96,29.83,19,6,19,0.00
2013-1-3,28.5,18.2,2.8,9.3,2.8,-4.7,71,51,42,29.96,29.85,32,13,32,0.00
2013-1-4,34.1,22.5,15.6,12.3,4.8,0.2,55,47,39,29.87,29.74,22,10,22,0.14
2013-1-5,32.3,21.4,6.9,11.1,5.4,-4.9,62,50,39,29.93,29.80,25,10,25,0.00
2013-1-6,42.9,32.9,18.8,13.1,8.8,5.0,57,37,26,29.88,29.62,44,16,44,0.00
2013-1-7,41.1,32.0,24.4,14.7,9.4,5.2,51,39,28,29.70,29.49,39,17,39,0.00
2013-1-8,42.9,34.5,30.2,20.2,18.1,14.7,63,51,38,29.85,29.49,37,16,37,0.00
2013-1-9,49.6,41.1,31.8,23.1,19.8,14.6,64,44,29,29.89,29.59,46,23,46,0.00
2013-1-10,52.3,43.2,26.7,16.3,13.3,10.5,58,31,23,29.60,29.21,45,16,45,0.00
2013-1-11,28.2,11.6,3.3,21.2,4.9,-3.2,89,74,58,29.60,29.20,21,4,21,0.00
2013-1-12,10.2,2.8,-6.8,1.6,-4.1,-12.8,77,73,66,29.70,29.59,16,3,16,0.00
2013-1-13,12.0,1.4,-7.0,1.0,-5.7,-12.6,79,72,59,29.76,29.69,15,2,15,0.00
2013-1-14,10.0,3.0,-7.0,-2.0,-6.7,-13.0,76,64,56,29.79,29.69,33,11,33,0.00
2013-1-15,23.5,16.8,6.6,12.1,5.4,-5.4,65,60,57,29.84,29.70,40,20,40,0.00
2013-1-16,36.5,26.9,20.4,16.4,12.5,9.4,63,55,43,30.01,29.83,45,18,45,0.00
2013-1-17,41.1,31.1,22.1,15.0,11.1,8.0,55,44,33,30.06,29.86,35,12,35,0.00
2013-1-18,46.7,37.0,30.0,12.8,9.7,6.0,41,33,23,29.87,29.72,38,19,38,0.00
2013-1-19,46.2,35.6,28.7,12.3,9.6,7.5,42,34,22,29.91,29.76,35,13,35,0.08
2013-1-20,34.7,27.4,15.6,17.7,12.1,6.8,74,53,39,30.01,29.82,29,4,29,0.00
2013-1-21,50.5,35.1,18.1,15.1,11.9,9.2,70,40,21,29.89,29.73,32,13,32,0.00
2013-1-22,51.0,39.9,30.5,11.7,8.9,6.5,38,28,19,29.80,29.73,34,17,34,0.00
2013-1-23,52.7,44.1,39.5,11.4,7.7,4.0,28,23,16,29.82,29.73,38,16,38,0.00
2013-1-24,53.2,42.3,30.7,28.9,21.1,9.2,76,45,28,29.83,29.67,40,14,40,0.00
2013-1-25,50.9,39.6,28.2,26.3,23.9,20.3,74,55,34,29.84,29.71,38,15,38,0.00
2013-1-26,52.5,42.2,33.4,30.2,26.0,20.1,66,53,39,29.72,29.48,28,11,28,0.00
2013-1-27,52.1,43.4,33.2,31.8,28.3,25.1,73,56,41,29.49,29.41,31,12,31,0.00
2013-1-28,32.7,25.7,13.8,26.4,21.0,9.8,88,82,72,29.51,29.43,16,3,16,0.03
2013-1-29,28.9,16.0,3.5,13.4,7.9,-2.5,85,71,51,29.72,29.44,20,7,20,0.00
2013-1-30,32.7,21.3,1.4,20.8,12.3,-4.0,83,68,55,29.67,29.52,22,8,22,0.00
2013-1-31,42.0,27.2,16.1,26.0,18.6,11.8,85,71,48,29.81,29.63,18,5,18,0.04
2013-2-1,41.0,31.5,19.7,28.2,21.5,14.5,82,67,54,29.89,29.70,24,8,24,0.00
2013-2-2,48.7,31.8,20.1,20.5,16.8,12.4,80,57,27,29.96,29.88,38,9,38,0.00
2013-2-3,46.0,34.8,25.7,18.7,16.5,13.8,65,48,31,29.89,29.63,35,11,35,0.00
2013-2-4,49.6,36.2,24.4,19.0,15.4,11.7,62,44,27,29.68,29.56,34,9,34,0.00
2013-2-5,49.8,37.6,23.5,23.5,18.7,13.2,67,48,32,29.70,29.54,30,10,30,0.00
2013-2-6,46.5,37.3,24.6,22.0,18.8,14.9,78,49,33,29.79,29.52,22,5,22,0.00
2013-2-7,43.5,30.9,15.4,18.5,12.4,7.0,84,51,27,29.81,29.65,33,9,33,0.00
2013-2-8,49.8,35.9,27.1,23.6,15.0,6.6,77,44,27,29.67,29.49,18,5,18,0.00
2013-2-9,28.4,25.8,23.5,23.7,21.2,18.3,88,83,72,29.55,29.40,17,5,17,0.00
2013-2-10,28.0,18.6,1.9,21.0,13.1,-3.1,88,79,65,29.74,29.45,19,5,19,0.00
2013-2-11,23.5,12.5,-0.2,11.4,4.3,-5.2,83,70,55,29.74,29.65,23,8,23,0.00
2013-2-12,25.8,20.7,14.5,14.8,9.7,3.8,68,62,57,29.75,29.69,36,18,36,0.00
2013-2-13,40.6,29.7,22.6,25.6,19.6,13.8,83,67,52,29.73,29.62,36,13,36,0.00
2013-2-14,27.6,23.4,19.5,23.5,16.7,12.2,86,76,62,29.94,29.72,26,5,26,0.00
2013-2-15,35.4,25.1,12.5,24.0,16.6,8.6,86,71,52,29.98,29.86,18,4,18,0.02
2013-2-16,42.9,34.3,26.2,23.1,19.2,15.4,64,54,42,29.87,29.59,39,17,39,0.00
2013-2-17,45.6,34.5,24.6,25.1,18.1,12.8,83,54,33,29.61,29.39,37,13,37,0.00
2013-2-18,34.3,23.7,10.2,21.3,13.7,3.7,83,67,38,29.73,29.60,19,4,19,0.00
2013-2-19,44.4,24.5,6.9,20.1,10.5,2.6,86,60,27,29.71,29.45,26,4,26,0.00
2013-2-20,41.5,25.6,15.4,20.5,15.5,10.6,83,67,41,29.49,29.39,18,6,18,0.00
2013-2-21,28.7,22.2,15.2,20.1,16.3,9.7,88,78,67,29.59,29.49,15,5,15,0.00
2013-2-22,36.1,23.4,12.0,20.4,10.5,5.7,86,61,31,29.63,29.48,32,10,32,0.00
2013-2-23,39.0,29.1,22.8,24.3,17.4,9.5,88,63,46,29.51,29.36,41,18,41,0.00
2013-2-24,30.9,22.5,11.4,21.3,16.8,6.9,87,79,61,29.78,29.51,27,7,27,0.00
2013-2-25,30.7,23.1,9.1,15.2,11.1,4.4,83,61,50,29.75,29.52,39,18,39,0.00
2013-2-26,31.6,24.6,15.4,23.2,18.6,11.0,86,78,54,29.86,29.54,30,6,30,0.02
2013-2-27,27.6,19.3,9.1,15.9,10.8,4.7,85,70,57,29.92,29.85,30,10,30,0.00
2013-2-28,34.3,24.3,15.6,17.6,11.7,7.4,73,59,43,29.94,29.85,32,10,32,0.00
2013-3-1,46.2,32.7,15.9,27.2,19.9,8.4,75,61,42,29.97,29.92,31,7,31,0.00
2013-3-2,50.7,41.3,31.2,29.8,26.3,23.8,76,56,41,29.97,29.63,37,13,37,0.00
2013-3-3,53.0,42.5,25.8,31.2,26.4,18.2,77,54,41,29.63,29.38,37,19,37,0.00
2013-3-4,31.2,23.0,6.4,19.5,9.0,-0.1,84,58,30,29.93,29.55,38,8,38,0.02
2013-3-5,44.0,24.8,2.4,14.3,7.9,-3.1,83,53,26,29.92,29.71,26,7,26,0.00
2013-3-6,56.4,40.8,17.4,22.6,17.1,6.9,67,41,22,29.72,29.51,35,12,35,0.00
2013-3-7,55.2,42.0,30.2,27.2,21.4,16.1,67,45,29,29.71,29.54,22,6,22,0.00
2013-3-8,56.1,36.6,19.7,28.4,23.4,13.4,83,61,33,29.67,29.49,15,4,15,0.00
2013-3-9,38.8,31.7,18.3,26.7,19.4,8.9,83,62,38,29.84,29.52,32,7,32,0.00
2013-3-10,49.6,32.6,12.5,21.9,15.1,7.7,85,53,27,29.89,29.70,21,4,21,0.00
2013-3-11,39.9,33.0,23.0,30.8,22.7,16.0,85,68,45,29.88,29.66,20,5,20,0.10
2013-3-12,47.4,29.8,12.2,28.2,20.5,8.2,87,70,45,29.93,29.80,17,3,17,0.04
2013-3-13,62.4,45.9,29.1,31.8,27.2,23.0,79,51,27,29.90,29.81,29,8,29,0.00
2013-3-14,67.8,51.2,35.9,29.6,26.6,23.6,66,42,20,29.93,29.76,29,6,29,0.00
2013-3-15,68.5,55.0,38.4,28.2,22.8,16.9,54,30,16,29.76,29.60,22,7,22,0.00
2013-3-16,57.0,40.2,27.6,33.5,25.8,20.1,86,59,32,29.76,29.50,15,3,15,0.06
2013-3-17,48.9,35.1,19.5,30.7,19.3,-0.7,89,60,16,29.57,29.27,45,12,45,0.22
2013-3-18,43.1,28.5,15.0,14.6,7.6,3.7,71,45,21,29.64,29.52,27,4,27,0.00
2013-3-19,43.5,27.5,16.7,23.2,16.3,10.4,85,66,28,29.94,29.63,20,4,20,0.03
2013-3-20,54.1,33.4,9.3,29.7,17.7,4.6,84,58,20,29.93,29.44,43,10,43,0.00
2013-3-21,44.4,34.3,19.2,32.7,26.6,15.3,87,74,57,29.59,29.30,33,8,33,0.02
2013-3-22,32.1,24.7,18.3,22.8,18.5,13.3,89,78,61,29.69,29.53,17,3,17,0.08
2013-3-23,29.1,19.5,13.1,14.5,10.6,7.1,83,69,50,29.83,29.69,19,3,19,0.00
2013-3-24,25.7,16.9,9.6,13.2,8.9,5.4,85,71,46,29.88,29.77,15,3,15,0.00
2013-3-25,38.3,22.2,4.4,16.0,8.5,-0.1,84,59,31,29.90,29.75,23,5,23,0.00
2013-3-26,49.1,35.7,24.0,22.3,15.0,9.6,65,44,27,29.75,29.65,23,5,23,0.00
2013-3-27,57.0,39.2,20.4,32.4,23.6,14.1,83,57,31,29.76,29.68,21,2,21,0.00
2013-3-28,61.7,44.6,27.6,30.5,24.3,19.0,78,50,24,29.82,29.72,13,1,13,0.00
2013-3-29,66.9,47.8,28.2,32.4,25.5,19.0,77,47,18,29.82,29.73,18,2,18,0.00
2013-3-30,53.2,39.1,31.6,41.7,30.6,24.0,91,74,39,29.88,29.82,29,2,29,0.26
2013-3-31,63.5,45.4,29.6,27.8,24.9,19.4,80,49,19,29.85,29.72,22,5,22,0.00
2013-4-1,54.8,40.0,22.2,28.8,23.3,16.1,85,55,31,29.83,29.73,18,4,18,0.00
2013-4-2,58.8,41.2,20.3,29.4,19.9,11.7,80,46,22,29.81,29.73,17,2,17,0.00
2013-4-3,68.9,46.0,24.4,34.4,25.9,17.1,79,51,20,29.84,29.73,22,3,22,0.00
2013-4-4,71.2,49.8,26.6,39.9,27.9,22.9,90,51,18,29.84,29.62,26,4,26,0.00
2013-4-5,69.6,55.0,36.3,33.5,28.5,19.5,73,38,24,29.62,29.45,36,11,36,0.02
2013-4-6,61.7,48.0,33.4,29.5,24.6,18.1,73,44,20,29.65,29.55,28,8,28,0.00
2013-4-7,60.9,49.1,39.2,30.6,27.0,23.0,60,43,25,29.57,29.37,46,14,46,0.00
2013-4-8,46.9,27.9,13.1,32.5,19.5,8.6,85,72,44,29.76,29.37,29,9,29,0.00
2013-4-9,16.3,12.1,9.1,8.4,6.5,4.4,83,78,68,29.92,29.75,23,7,23,0.00
2013-4-10,29.4,18.5,7.5,16.8,10.4,3.0,83,71,58,29.88,29.56,16,2,16,0.11
2013-4-11,51.6,36.5,18.3,33.2,27.2,11.9,85,70,48,29.62,29.50,15,3,15,0.00
2013-4-12,51.0,35.9,28.2,36.1,28.8,23.6,91,76,49,29.73,29.59,14,2,14,0.24
2013-4-13,52.8,39.6,24.4,34.5,28.4,20.5,89,66,42,29.59,29.18,46,12,46,0.00
2013-4-14,42.0,31.5,22.8,28.5,19.8,12.5,88,66,30,29.56,29.29,31,8,31,0.08
2013-4-15,29.8,24.3,19.5,20.1,16.2,13.4,82,72,59,29.72,29.52,18,7,18,0.00
2013-4-16,23.5,20.9,19.2,18.4,16.0,13.1,87,81,68,29.82,29.64,25,12,25,0.00
2013-4-17,25.7,20.1,15.8,17.6,14.6,9.8,88,80,67,29.87,29.76,21,7,21,0.00
2013-4-18,38.3,23.2,5.5,20.1,13.4,1.4,85,68,44,29.87,29.78,14,3,14,0.02
2013-4-19,51.6,38.0,24.6,31.4,24.1,14.9,71,58,42,29.79,29.58,27,9,27,0.00
2013-4-20,59.7,45.7,37.2,37.4,32.4,30.0,79,62,37,29.69,29.57,23,6,24,0.07
2013-4-21,57.5,42.5,30.2,36.6,31.0,23.5,90,68,28,29.76,29.65,26,8,26,0.02
2013-4-22,30.0,24.3,17.2,26.6,18.7,12.3,87,79,68,29.99,29.70,25,7,25,0.00
2013-4-23,40.6,25.5,10.0,23.1,12.6,3.6,86,62,25,29.97,29.78,23,4,23,0.00
2013-4-24,48.2,35.4,23.5,21.9,16.5,11.7,70,49,27,29.88,29.76,25,4,25,0.02
2013-4-25,66.5,48.1,28.7,20.0,15.4,7.0,62,31,11,29.76,29.60,27,7,27,0.01
2013-4-26,72.1,49.7,26.0,26.9,19.9,15.0,68,37,16,29.89,29.74,19,2,19,0.00
2013-4-27,75.5,56.2,36.3,28.3,22.4,16.9,56,31,12,29.88,29.68,26,4,26,0.00
2013-4-28,74.8,57.5,42.4,35.1,29.1,23.4,73,36,19,29.71,29.60,26,5,26,0.00
2013-4-29,71.4,53.5,31.8,34.8,27.4,21.3,86,44,18,29.65,29.34,46,14,46,0.39
2013-4-30,42.6,37.1,29.4,31.9,24.5,19.8,89,62,42,29.81,29.49,21,8,21,0.00
2013-5-1,38.1,29.5,24.0,27.7,22.4,17.0,88,75,59,30.21,29.81,20,6,20,0.00
2013-5-2,53.0,37.7,21.9,27.4,19.2,12.9,85,54,23,30.27,30.02,18,3,18,0.00
2013-5-3,70.8,48.1,21.3,28.1,19.2,12.0,71,38,16,30.03,29.76,18,2,18,0.00
2013-5-4,60.6,47.9,36.6,25.7,23.2,20.7,59,40,24,29.90,29.80,22,7,22,0.00
2013-5-5,63.1,48.5,30.7,26.9,23.3,17.6,63,40,23,29.90,29.77,24,7,24,0.00
2013-5-6,73.0,53.8,32.9,33.7,27.9,23.0,70,41,20,29.80,29.66,16,2,16,0.00
2013-5-7,74.3,54.6,32.7,40.6,33.7,23.3,73,48,28,29.70,29.62,22,6,22,0.00
2013-5-8,73.0,56.7,41.5,39.7,33.4,26.9,73,46,19,29.84,29.70,24,5,24,0.00
2013-5-9,78.8,53.9,34.7,41.7,36.3,27.8,83,56,22,29.90,29.80,29,4,29,0.00
2013-5-10,73.5,55.5,38.1,41.8,34.4,25.4,86,52,19,30.06,29.88,23,5,23,0.00
2013-5-11,75.0,57.6,37.2,41.7,31.7,20.9,78,44,15,30.09,29.88,20,3,20,0.00
2013-5-12,83.1,65.5,46.4,37.9,33.0,28.1,54,32,18,29.91,29.79,19,3,19,0.17
2013-5-13,91.5,71.6,53.4,39.9,34.5,29.3,46,29,14,29.86,29.69,19,4,19,0.00
2013-5-14,92.4,71.5,54.6,41.8,31.4,23.0,52,25,10,29.74,29.60,29,4,29,0.00
2013-5-15,88.1,62.5,43.8,48.2,38.8,31.1,76,47,16,29.75,29.60,23,2,23,0.00
2013-5-16,81.6,63.7,49.2,49.9,43.3,34.3,87,53,21,29.69,29.55,25,5,25,0.06
2013-5-17,82.2,63.4,47.8,54.1,43.1,23.0,91,57,12,29.67,29.51,32,5,32,0.04
2013-5-18,74.3,57.1,41.3,48.1,40.1,32.2,91,58,25,29.66,29.56,35,5,35,0.12
2013-5-19,56.3,48.2,45.5,47.3,44.4,41.1,92,87,71,29.68,29.60,23,5,23,1.24
2013-5-20,55.0,47.0,42.6,44.6,39.1,32.1,92,76,45,29.81,29.67,26,8,26,0.27
2013-5-21,71.7,52.9,40.6,39.4,36.4,30.6,87,58,27,29.82,29.65,19,5,19,0.00
2013-5-22,66.5,52.1,36.8,43.6,39.0,33.5,90,65,34,29.72,29.63,38,12,38,0.04
2013-5-23,74.1,58.5,43.5,48.0,43.7,39.9,88,61,36,29.71,29.50,42,17,42,0.08
2013-5-24,75.7,64.6,50.7,42.2,29.9,21.6,57,31,14,29.74,29.52,30,9,30,0.00
2013-5-25,85.6,63.8,40.8,44.2,30.6,20.8,71,35,11,29.73,29.60,24,4,24,0.00
2013-5-26,81.1,63.3,46.5,50.3,42.8,25.1,76,49,30,29.74,29.55,21,4,21,0.00
2013-5-27,80.2,61.9,45.6,54.0,38.8,21.2,92,53,15,29.64,29.51,40,6,40,0.00
2013-5-28,74.4,57.6,41.5,42.2,38.4,32.8,73,51,29,29.61,29.42,25,4,25,0.00
2013-5-29,50.5,46.9,44.6,43.0,41.0,38.7,88,80,69,29.49,29.45,4,0,4,0.00
2013-5-30,57.3,50.8,47.1,38.7,35.8,33.6,72,57,45,29.59,29.43,25,8,25,0.00
2013-5-31,59.7,49.1,41.7,39.0,34.6,32.0,78,59,37,29.87,29.56,30,8,30,0.02
2013-6-1,70.3,55.8,43.5,38.4,36.4,32.8,80,52,26,29.98,29.85,16,4,16,0.00
2013-6-2,85.2,64.0,37.0,43.5,35.0,29.7,85,42,16,29.85,29.48,22,4,22,0.02
2013-6-3,80.2,64.5,48.9,49.0,30.9,17.8,71,33,11,29.77,29.41,28,6,28,0.00
2013-6-4,48.9,41.6,34.8,37.1,34.2,29.5,85,75,63,29.81,29.76,12,2,12,0.18
2013-6-22,79.5,63.0,50.1,53.6,49.4,44.8,83,63,38,29.77,29.57,25,4,25,0.21
2013-6-23,84.0,63.3,42.9,49.5,39.2,26.3,92,54,13,29.78,29.58,14,3,14,0.00
2013-6-24,95.0,79.4,48.0,48.0,33.7,23.9,84,24,10,29.58,29.48,29,8,29,0.00
2013-6-25,85.1,73.0,60.4,43.9,39.0,31.6,45,30,19,29.67,29.55,25,11,27,0.00
2013-7-3,95.3,77.1,50.9,55.1,47.1,37.0,68,39,18,29.80,29.71,18,3,31,0.00
2013-7-4,98.4,73.5,55.7,55.9,49.6,41.4,85,48,20,29.78,29.66,18,2,18,0.06
2013-7-5,90.5,71.2,55.7,60.8,54.7,49.1,92,62,27,29.77,29.60,18,5,23,0.06
2013-7-6,93.0,71.6,57.0,58.1,52.3,34.1,90,58,15,29.78,29.66,21,6,28,0.10
2013-7-7,94.1,74.3,57.5,60.4,50.9,35.1,92,53,15,29.81,29.71,22,3,22,0.35
2013-7-8,94.1,73.0,56.1,55.2,48.9,40.1,82,48,22,29.84,29.73,19,4,19,0.10
2013-7-9,96.4,75.3,52.8,53.7,47.6,39.3,78,43,16,29.93,29.84,18,3,18,0.00
2013-7-10,93.0,75.3,61.1,51.9,45.1,32.4,71,41,13,29.94,29.76,14,2,14,0.00
2013-7-11,102.5,81.2,56.4,59.4,46.1,32.8,79,38,10,29.80,29.58,22,2,25,0.00
2013-7-12,92.4,76.6,64.0,54.7,51.0,42.8,64,42,26,29.77,29.63,22,4,22,0.00
2013-7-13,91.4,74.6,60.4,57.0,50.2,43.5,69,45,22,29.89,29.76,21,5,21,0.02
2013-7-14,84.9,71.5,59.7,57.8,52.6,46.4,76,53,34,29.99,29.85,21,6,21,0.04
2013-7-15,96.6,75.3,58.2,61.9,54.3,42.7,92,55,21,29.91,29.73,21,5,22,0.00
2013-7-16,91.0,74.6,57.0,56.4,49.1,40.0,76,46,19,29.93,29.79,20,6,22,0.00
2013-7-17,94.6,74.7,51.8,57.8,50.9,43.7,89,50,22,29.95,29.82,12,2,14,0.00
2013-7-18,96.6,79.6,66.3,56.3,49.9,45.9,53,37,24,29.91,29.80,20,3,20,0.23
2013-7-19,74.8,64.8,58.2,59.7,51.1,46.9,88,62,44,29.98,29.88,14,3,15,0.34
2013-7-20,95.1,83.2,62.2,57.2,49.9,42.8,71,34,19,29.81,29.65,9,1,18,0.00
2013-7-21,97.7,76.2,52.7,56.8,46.6,31.2,85,43,13,29.72,29.61,19,3,19,0.00
2013-7-22,97.3,78.6,56.1,55.0,40.7,23.7,59,31,10,29.78,29.63,14,2,17,0.00
2013-7-23,94.1,75.2,52.8,54.5,46.1,35.4,80,42,16,29.88,29.73,14,2,14,0.00
2013-7-24,86.1,69.3,55.9,57.0,52.0,46.9,75,56,36,29.91,29.85,16,3,18,0.00
2013-7-29,82.9,69.4,55.4,54.3,49.3,43.6,90,55,27,29.92,29.77,30,6,30,0.28
2013-7-30,89.7,64.9,53.7,54.1,50.4,38.8,89,65,22,30.00,29.87,28,5,35,0.00
2013-7-31,89.4,73.4,52.1,55.6,50.6,46.6,86,48,27,30.05,29.86,22,2,22,0.00
2013-8-1,91.2,73.2,55.9,57.8,50.8,45.8,80,49,25,29.89,29.65,26,5,31,0.11
2013-8-2,91.4,77.5,61.5,57.1,44.7,25.1,76,37,11,29.78,29.65,24,6,24,0.00
2013-8-3,86.3,71.0,55.2,61.1,56.0,48.3,91,63,36,29.89,29.75,26,5,26,0.00
2013-8-4,95.3,72.8,55.2,61.4,52.5,37.9,88,55,17,29.89,29.73,20,1,20,0.00
2013-8-5,93.0,75.6,60.0,61.6,50.3,34.0,87,49,15,29.86,29.68,12,2,15,0.00
2013-8-6,89.6,72.3,51.6,54.0,45.9,39.6,68,42,22,29.84,29.73,16,2,18,0.00
2013-8-7,90.1,70.8,53.4,55.6,48.4,41.0,77,49,21,29.85,29.69,18,2,20,0.00
2013-8-8,85.2,65.7,51.4,54.5,48.9,42.8,81,57,26,29.88,29.75,28,6,28,0.14
2013-8-9,80.7,64.3,52.1,54.8,50.2,46.3,87,64,32,29.95,29.85,17,4,19,0.04
2013-8-10,87.9,66.4,50.9,55.6,48.6,40.1,92,58,21,29.94,29.82,11,2,11,0.00
2013-8-11,91.9,71.0,55.2,50.5,45.4,39.6,69,44,19,29.92,29.83,20,4,20,0.00
2013-8-12,92.1,69.6,48.5,53.3,45.7,38.4,87,48,21,29.92,29.83,17,2,22,0.00
2013-8-13,87.2,64.2,51.9,54.6,48.5,42.2,76,59,29,29.96,29.87,14,1,17,0.06
2013-8-14,86.1,68.9,49.8,51.1,46.4,40.2,82,50,24,29.94,29.80,20,3,21,0.00
2013-8-15,90.3,70.7,50.0,52.0,45.4,39.2,85,47,20,29.89,29.83,14,2,14,0.00
2013-8-16,96.9,73.0,46.2,50.5,39.8,29.6,77,37,12,29.91,29.80,12,1,14,0.00
2013-8-17,98.4,77.1,54.6,51.8,40.2,30.4,59,32,10,29.85,29.74,21,3,21,0.00
2013-8-18,96.4,74.8,53.4,50.5,44.3,37.5,66,38,15,29.84,29.76,19,5,22,0.00
2013-8-19,96.6,75.4,54.8,50.5,41.6,32.2,70,37,12,29.86,29.72,22,3,28,0.00
2013-8-20,93.9,74.7,57.5,51.6,40.1,30.7,58,31,18,29.87,29.75,37,4,37,0.02
2013-8-21,84.7,74.0,60.4,53.5,50.1,43.7,69,45,26,29.88,29.80,19,3,22,0.00
2013-8-22,90.1,72.4,57.0,59.3,53.0,47.6,82,54,27,29.93,29.76,20,2,20,0.39
2013-8-23,93.0,75.2,62.9,56.6,52.7,48.7,74,49,25,29.83,29.65,40,4,42,0.02
2013-8-24,86.5,71.9,61.8,53.4,48.1,41.4,64,45,22,29.80,29.73,26,7,34,0.00
2013-8-25,84.7,72.8,58.8,50.5,46.3,42.3,57,40,28,29.89,29.80,22,7,58,0.00
2013-8-26,89.4,75.1,64.5,52.9,49.4,45.6,61,42,25,29.88,29.81,30,10,30,0.00
2013-8-27,90.5,76.2,63.5,55.7,51.2,48.1,63,44,25,29.88,29.78,22,7,22,0.00
2013-8-28,93.0,76.4,59.9,53.9,48.3,42.1,67,41,19,29.86,29.78,22,6,25,0.00
2013-8-29,91.7,76.7,57.9,54.2,46.9,40.4,59,37,10,29.95,29.83,17,1,28,0.00
2013-8-30,95.0,75.3,56.8,53.1,46.7,37.0,74,41,18,29.92,29.78,14,2,16,0.00
2013-8-31,84.5,71.3,59.9,48.2,42.1,38.3,47,36,23,29.91,29.80,19,3,19,0.00
2013-9-1,87.0,70.5,48.0,53.1,44.5,36.0,68,42,22,29.91,29.79,19,3,19,0.00
2013-9-2,93.9,71.1,53.2,59.9,51.3,43.3,80,53,24,29.85,29.73,20,2,20,0.08
2013-9-3,89.4,74.2,58.8,58.2,53.4,46.6,84,53,26,29.86,29.79,19,3,20,0.00
2013-9-4,94.4,76.2,57.3,56.4,50.4,46.8,74,44,23,29.94,29.84,10,1,14,0.00
2013-9-5,94.2,77.4,55.7,56.8,48.7,43.3,73,40,20,29.93,29.80,19,3,23,0.00
2013-9-6,91.4,78.7,66.9,52.3,46.6,43.3,47,33,20,29.92,29.79,22,3,22,0.00
2013-9-7,67.8,63.5,56.4,47.0,44.9,42.9,64,51,45,29.87,29.82,10,1,10,0.00
2013-9-8,87.4,73.0,58.8,57.8,52.7,46.5,74,51,26,29.81,29.67,16,3,22,0.00
2013-9-9,76.2,65.1,56.8,54.8,50.9,42.7,83,62,34,29.81,29.69,61,3,61,0.00
2013-9-10,70.7,61.9,55.2,52.6,48.1,43.9,84,62,42,29.92,29.81,16,2,16,0.00
2013-9-11,65.1,60.5,56.1,56.4,49.7,45.1,86,68,56,30.01,29.92,18,4,18,0.02
2013-9-12,66.2,59.2,54.6,55.7,52.1,48.9,90,78,63,30.04,29.89,21,5,21,0.04
2013-9-13,68.0,58.9,53.2,60.2,54.4,49.1,92,85,68,29.89,29.67,8,1,11,0.24
2013-9-14,77.5,61.6,47.6,56.2,52.2,45.7,94,75,41,29.83,29.67,17,3,22,0.03
2013-9-15,64.9,58.4,53.4,55.2,52.2,49.2,90,80,65,29.94,29.83,25,10,28,0.00
2013-9-16,80.4,62.5,45.6,56.1,48.1,41.4,94,65,29,29.88,29.70,22,4,22,0.00
2013-9-17,84.0,70.0,57.3,50.8,46.2,40.8,65,45,25,29.73,29.54,38,10,38,0.00
2013-9-18,81.6,64.1,45.3,52.5,40.6,26.3,83,47,18,29.75,29.53,29,7,33,0.02
2013-9-19,66.7,50.1,32.3,41.5,32.7,28.0,88,56,27,29.91,29.75,14,1,16,0.00
2013-9-20,75.3,53.6,29.4,39.0,29.2,23.7,86,47,16,29.91,29.70,18,3,22,0.00
2013-9-21,83.4,65.5,40.6,36.7,28.5,21.2,59,28,12,29.70,29.52,26,8,38,0.00
2013-9-22,79.5,64.7,55.2,47.9,40.3,30.3,69,42,25,29.52,29.41,24,11,27,0.00
2013-9-23,68.7,55.6,42.4,45.8,37.6,24.8,86,54,25,29.75,29.41,22,4,22,0.00
2013-9-24,76.8,60.1,39.0,36.5,30.9,25.3,60,36,18,29.80,29.55,25,9,30,0.00
2013-9-25,78.9,62.1,42.0,39.6,31.4,24.9,86,36,17,29.55,29.29,33,8,33,0.08
2013-9-26,61.3,48.7,39.7,41.7,38.4,35.8,88,70,47,29.57,29.50,12,4,12,0.02
2013-10-1,73.0,63.3,46.5,38.4,34.7,31.7,66,37,24,29.70,29.63,22,6,31,0.00
2013-10-2,58.8,49.2,39.0,36.6,32.6,30.0,76,54,38,29.83,29.62,12,3,16,0.00
2013-10-3,46.2,41.0,30.9,42.2,36.5,29.1,93,85,57,29.72,29.57,19,4,19,0.68
2013-10-4,32.1,29.2,26.4,29.3,26.9,23.9,93,91,87,29.99,29.70,0,0,0,0.04
2013-10-5,35.9,30.0,18.6,28.3,24.9,15.8,92,82,69,29.98,29.90,28,4,31,0.14
2013-10-6,49.2,42.8,33.2,34.7,31.5,25.7,76,65,54,29.98,29.87,25,10,26,0.00
2013-10-7,67.1,55.6,45.3,36.8,33.3,30.9,64,44,31,29.87,29.62,41,15,41,0.00
2013-10-8,70.3,57.4,44.9,36.5,33.3,28.8,67,42,25,29.65,29.52,28,12,31,0.00
2013-10-9,53.2,44.1,34.7,38.3,33.3,27.8,80,66,54,29.76,29.65,22,6,23,0.00
2013-10-10,61.5,44.0,31.6,43.8,35.5,26.9,89,73,51,29.65,29.38,8,0,8,0.10
2013-10-11,50.1,41.6,31.1,40.9,33.8,25.8,90,75,47,29.80,29.39,20,4,22,0.12
2013-10-12,56.1,39.1,23.9,37.1,30.1,20.8,91,73,41,29.84,29.77,9,0,9,0.00
2013-10-13,58.8,42.4,30.0,45.6,36.7,26.9,92,82,54,29.81,29.68,19,1,19,0.11
2013-10-14,40.8,34.8,30.2,38.6,31.5,25.6,94,88,80,29.98,29.66,24,5,24,0.12
2013-10-15,37.9,31.8,27.5,28.4,26.0,23.2,87,79,65,30.02,29.85,12,1,12,0.00
2013-10-16,50.7,38.2,30.0,30.8,26.4,23.7,81,64,38,29.85,29.72,27,8,32,0.00
2013-10-17,43.3,35.0,29.1,31.5,28.4,24.5,86,77,61,29.85,29.77,7,0,7,0.00
2013-10-18,44.6,34.3,25.8,29.1,24.6,21.0,89,70,41,29.91,29.78,16,2,23,0.00
2013-10-19,59.1,44.4,34.3,30.6,26.5,23.2,66,51,29,29.78,29.65,22,4,26,0.00
2013-10-20,49.1,37.9,27.6,39.1,31.6,24.2,91,79,49,29.82,29.65,11,1,11,0.18
2013-10-21,56.4,43.0,28.2,35.3,30.4,25.1,90,64,36,29.84,29.79,11,2,12,0.00
2013-10-22,64.2,48.8,35.2,37.0,32.3,26.8,76,55,33,29.90,29.80,15,3,15,0.00
2013-10-23,63.3,44.1,28.0,37.8,31.6,23.3,88,65,34,29.93,29.84,8,0,9,0.00
2013-10-24,58.8,41.1,26.4,40.2,32.6,23.2,92,74,45,29.96,29.87,4,0,5,0.00
2013-10-25,68.3,46.4,28.2,38.5,31.7,25.4,90,62,25,29.98,29.85,8,1,10,0.00
2013-10-26,64.5,45.9,28.9,38.8,30.4,24.6,89,59,27,30.01,29.79,12,2,61,0.00
2013-10-27,66.2,50.7,37.2,31.9,26.1,22.0,72,41,20,29.79,29.55,15,4,16,0.00
2013-10-28,40.1,30.0,26.4,32.4,26.5,23.3,91,87,73,29.77,29.65,17,8,17,0.00
2013-10-29,45.5,31.3,26.2,32.8,26.8,23.7,91,84,61,29.71,29.59,10,2,10,0.00
2013-10-30,47.8,36.5,25.3,30.7,27.2,22.8,92,71,45,29.59,29.52,13,3,15,0.00
2013-10-31,54.8,38.7,26.7,30.8,26.3,21.9,84,63,37,29.65,29.52,16,5,17,0.00
2013-11-1,49.2,37.4,23.7,28.0,22.4,14.6,77,57,34,29.86,29.65,12,3,12,0.00
2013-11-2,60.0,42.5,19.9,30.3,22.5,14.0,83,51,27,29.86,29.45,42,13,44,0.04
2013-11-3,50.1,41.7,26.7,30.7,25.7,21.4,85,56,34,29.64,29.39,30,9,37,0.00
2013-11-4,37.2,29.3,19.5,22.7,16.5,13.6,86,61,39,29.70,29.63,23,5,29,0.02
2013-11-5,38.4,28.6,18.6,23.2,14.1,3.2,87,58,29,29.80,29.70,20,4,20,0.00
2013-11-6,49.6,34.7,19.2,21.1,14.3,9.9,72,44,27,30.00,29.78,31,9,32,0.00
2013-11-7,49.8,40.6,16.8,29.0,23.9,10.2,79,53,40,29.99,29.58,23,8,25,0.00
2013-11-8,55.9,44.7,28.0,27.9,21.4,15.7,65,41,23,29.73,29.51,36,10,38,0.00
2013-11-9,51.9,36.4,23.0,27.7,22.2,15.6,74,58,37,29.90,29.73,13,2,14,0.00
2013-11-10,63.6,45.5,21.0,29.7,25.2,15.4,84,48,27,29.90,29.82,22,6,25,0.00
2013-11-11,46.5,35.7,23.9,30.2,25.1,18.0,87,67,42,30.19,29.85,17,4,19,0.00
2013-11-12,59.9,38.4,16.5,34.5,22.2,12.7,90,58,29,30.20,29.97,25,5,28,0.00
2013-11-13,56.1,48.5,35.2,35.9,23.6,19.3,84,40,27,29.98,29.75,22,7,24,0.00
2013-11-14,52.3,39.3,26.0,34.6,25.6,19.1,91,61,35,29.83,29.46,22,6,27,0.00
2013-11-15,52.3,40.7,31.6,27.3,22.0,17.2,64,48,34,29.45,29.22,30,11,30,0.06
2013-11-16,41.1,34.8,29.4,23.1,18.9,13.7,62,52,45,29.24,29.13,44,20,57,0.19
2013-11-17,43.3,32.9,20.4,20.4,12.7,5.7,66,45,23,29.74,29.24,25,9,32,0.00
2013-11-18,55.5,43.5,29.3,24.8,21.1,15.4,61,42,25,29.78,29.65,36,15,36,0.42
2013-11-19,55.0,47.0,40.6,29.8,26.0,21.0,64,45,34,29.65,29.44,44,19,44,0.00
2013-11-20,54.5,33.6,9.6,29.3,20.9,4.1,82,62,34,29.89,29.47,33,15,34,0.03
2013-11-21,17.2,8.8,2.8,7.7,2.3,-2.2,80,75,63,30.14,29.89,12,2,14,0.00
2013-11-22,30.0,10.6,-2.3,12.3,1.5,-8.4,78,67,46,30.20,30.09,15,4,16,0.00
2013-11-23,33.8,9.6,-5.9,14.6,1.0,-11.7,82,69,45,30.21,29.91,2,0,2,0.00
2013-11-24,39.9,23.0,1.2,21.9,12.8,-4.1,83,66,47,29.91,29.71,25,4,25,0.00
2013-11-25,42.9,30.0,19.2,27.0,20.1,14.0,83,68,48,30.01,29.82,8,0,8,0.06
2013-11-26,46.0,33.0,18.3,24.9,20.9,13.9,84,63,41,30.03,29.86,22,6,24,0.00
2013-11-27,51.8,39.7,21.9,24.0,21.1,14.5,73,48,33,29.86,29.74,35,13,39,0.00
2013-11-28,42.4,28.9,15.4,27.2,19.2,10.9,87,68,47,29.85,29.76,12,1,16,0.00
2013-11-29,49.8,41.8,35.4,24.5,22.3,18.1,57,46,36,29.84,29.75,30,14,37,0.00
2013-11-30,48.7,39.1,33.2,24.7,23.0,21.2,65,53,37,29.87,29.79,27,12,32,0.00
2013-12-1,46.0,40.0,33.6,28.3,25.8,22.2,64,57,49,29.81,29.53,35,17,38,0.00
2013-12-2,51.9,44.2,35.4,29.0,27.1,24.6,67,51,38,29.53,29.28,39,22,43,0.00
2013-12-3,34.7,12.8,2.3,28.4,7.0,-3.7,86,77,70,29.59,29.28,61,9,61,0.00
2013-12-4,6.0,-3.1,-16.0,-3.3,-10.3,-23.1,77,71,60,29.73,29.55,19,5,20,0.00
2013-12-5,3.7,-7.0,-17.5,-5.4,-13.9,-23.2,77,72,63,29.77,29.66,11,2,13,0.00
2013-12-6,4.2,-10.0,-19.1,-4.0,-16.7,-24.8,79,72,60,29.83,29.76,5,0,5,0.00
2013-12-7,-1.6,-8.4,-16.4,-10.0,-15.0,-22.2,77,73,64,29.81,29.49,10,1,12,0.00
2013-12-8,12.5,1.7,-8.1,1.0,-6.7,-14.2,76,68,58,29.70,29.46,20,5,22,0.00
2013-12-9,15.0,6.5,-6.7,4.3,-3.7,-13.4,76,63,51,29.75,29.62,51,21,51,0.04
2013-12-10,26.2,18.0,6.0,13.7,7.7,0.6,81,64,55,29.91,29.64,56,18,56,0.02
2013-12-11,30.9,21.2,-0.2,14.7,8.8,-5.2,82,60,47,29.91,29.85,37,15,37,0.00
2013-12-12,41.5,32.9,26.7,18.5,14.2,11.8,54,46,38,29.89,29.63,36,17,37,0.00
2013-12-13,41.9,30.0,20.8,21.6,15.3,11.3,84,56,38,29.86,29.61,23,4,26,0.02
2013-12-14,35.7,29.7,21.3,20.7,18.0,13.0,85,62,49,29.91,29.82,39,14,39,0.00
2013-12-15,42.6,36.3,30.2,22.1,19.6,16.7,63,51,43,29.84,29.75,38,19,40,0.00
2013-12-16,49.6,39.8,34.3,21.0,18.0,15.3,51,42,30,29.92,29.79,29,11,29,0.00
2013-12-17,49.2,40.7,33.2,19.3,17.0,14.7,49,39,29,29.95,29.72,39,13,41,0.00
2013-12-18,51.8,44.5,38.8,20.7,18.0,15.0,45,35,28,29.72,29.42,21,11,21,0.20
2013-12-19,39.9,17.0,0.5,27.1,8.7,-5.2,87,71,43,29.67,29.37,14,3,17,0.04
2013-12-20,22.8,15.1,0.5,12.2,7.3,-5.1,81,71,61,29.59,29.31,22,7,22,0.00
2013-12-21,29.3,21.3,13.2,18.9,13.3,8.7,82,71,58,29.63,29.28,22,5,22,0.00
2013-12-22,30.2,17.7,12.5,15.8,10.9,8.0,84,75,54,29.86,29.62,15,3,16,0.00
2013-12-23,38.4,27.7,12.2,29.3,19.5,6.4,84,72,59,29.86,29.70,25,9,29,0.00
2013-12-24,37.9,29.0,19.2,29.0,22.3,10.9,89,76,68,29.95,29.62,37,10,50,0.00
2013-12-25,29.8,24.1,14.7,16.4,11.9,6.3,72,60,47,30.02,29.85,38,13,42,0.15
2013-12-26,38.4,33.4,29.1,20.1,16.4,11.2,56,50,43,29.93,29.84,32,16,32,0.00
2013-12-27,42.9,38.0,32.9,24.0,21.0,18.4,56,50,45,29.93,29.69,33,17,34,0.00
2013-12-28,39.2,25.5,0.0,25.1,14.4,-5.3,80,65,46,29.96,29.61,30,8,37,0.00
2013-12-29,27.6,16.7,-9.2,16.7,8.3,-14.5,84,70,60,29.93,29.60,33,10,37,0.00
2013-12-30,34.3,28.9,23.0,20.4,16.7,12.5,66,60,52,29.88,29.69,29,14,32,0.00
2013-12-31,39.7,35.2,30.2,27.8,23.4,19.4,89,62,53,29.72,29.61,31,16,35,0.00
2014-1-1,31.6,24.3,13.1,27.2,20.0,8.6,90,83,72,29.93,29.69,0,0,0,0.02
2014-1-2,36.1,29.2,14.1,22.4,18.5,9.9,84,64,55,29.89,29.64,34,16,36,0.00